Weather Roundup
Issued by NWS Chicago, IL

Home | Current Version | Previous Version | Text Only | Print | Product List | Glossary On
Versions: 1 2 3 4 5 6 7 8 9 10 11 12 13 14 15 16 17 18 19 20 21 22 23 24 25 26 27 28 29 30 31 32 33 34 35 36 37 38 39 40 41 42 43 44 45 46 47 48 49 50
000
NZUS59 KLOT 302110
HRRLOT

CHICAGO AREA WEATHER ROUNDUP
NATIONAL WEATHER SERVICE CHICAGO/ROMEOVILLE IL
300 PM CST FRI JAN 30 2015

NOTE: "FAIR" INDICATES FEW OR NO CLOUDS BELOW 12,000 FEET WITH NO
SIGNIFICANT WEATHER AND/OR OBSTRUCTIONS TO VISIBILITY.

* THESE STATIONS ARE NOT UNDER NWS QUALITY CONTROL. THEY ALSO MAY NOT
  REPORT WEATHER SUCH AS PRECIPITATION OR FOG.

ILZ005-006-012>014-019>023-302200-
NORTHEAST ILLINOIS

CITY           SKY/WX    TMP DP  RH WIND       PRES   REMARKS
OHARE          MOSUNNY   28   8  43 VRB3      30.45F
MIDWAY         MOSUNNY   31   9  39 VRB7      30.46F WCI  24
AURORA         SUNNY     28  12  51 NW7       30.47S WCI  21
LANSING*       MOSUNNY   29  16  56 CALM      30.46F
JOLIET*        SUNNY     29  12  48 W6        30.47F WCI  23
WAUKEGAN       SUNNY     25  12  58 E5        30.45S WCI  19
DUPAGE AIRPORT SUNNY     29  10  45 CALM      30.45F
WHEELING       MOSUNNY   28   8  43 CALM      30.47F
KANKAKEE*      SUNNY     32  17  53 SW5       30.47F WCI  27
MORRIS*        SUNNY     29  16  58 W6        30.47S WCI  23
LEWIS AIRPORT* SUNNY     29   9  42 W5        30.46F WCI  24
NORTHERLY IS     N/A     26  15  63 E7          N/A  WCI  19
$$

WIZ051-052-058>065-066-070>072-302200-
SOUTHEAST WISCONSIN

CITY           SKY/WX    TMP DP  RH WIND       PRES   REMARKS
MILWAUKEE      MOSUNNY   26   9  48 S5        30.44F WCI  20
KENOSHA*       SUNNY     27   7  42 W8        30.45S WCI  19
RACINE*        SUNNY     25  11  55 E6        30.46F WCI  18
BURLINGTON     SUNNY     24   8  49 W3        30.45F
WAUKESHA       MOSUNNY   23   7  50 W9        30.44F WCI  13
WEST BEND      SUNNY     25   7  46 W3        30.42F
$$

INZ001>003-010>013-019-020-302200-
NORTHWEST INDIANA

CITY           SKY/WX    TMP DP  RH WIND       PRES   REMARKS
GARY*          MOSUNNY   30  10  43 CALM      30.47F
MICHIGAN CITY* NOT AVBL
RENSSELAER*    NOT AVBL
VALPARAISO     MOSUNNY   28  13  53 N6        30.45F WCI  22
$$

LMZ740>746-302200-
SOUTHERN LAKE MICHIGAN

STATION/POSITION TIME  SKY/WX   TEMP WIND        PRES    VSBY
                                AIR  DIR/SP/G
                 (UTC)          (F)  (DEG/KT/KT) (MB)    (MI)
HARRISON CRIB    2100            24   40/  4/  6   N/A
BURNHAM HARBOR   2100            26   80/  5/  7   N/A
CALUMET HARBOR   2100            25   50/  7/  8   N/A
BURNS HARBOR     NOT AVBL
MICHIGAN CITY    2100            27  320/  6/ 10   N/A
$$

ABBREVIATIONS USED IN REMARKS
   TC - TEMPERATURE IN CELSIUS
  WCI - WIND CHILL INDEX
   HX - HEAT INDEX
  VSB - VISIBILITY
$$


USA.gov is the U.S. government's official web portal to all federal, state and local government web resources and services.